Location: Palomar Mountain Lodge
(33.3110°N, 116.8495°W)
Time: 01:39:33
(UTC-07:00)

Iridium 4 Rocket - Pass Details

Date: 19 May 2017
Orbit: 586 x 904 km, 86.9° (Epoch: 22 June)

Event Time Altitude Azimuth Distance (km) Brightness Sun altitude
Rises 20:42:05 0° 2° (N) 3,057 7.1 -11.5°
Reaches altitude 10° 20:44:18 10° 5° (N) 2,184 6.2 -11.9°
Maximum altitude 20:49:08 66° 88° (E) 822 3.5 -12.7°
Drops below altitude 10° 20:54:26 10° 171° (S) 2,379 5.6 -13.6°
Enters shadow 20:54:56 - 172° (S) 2,573 5.8 -13.7°
